Location: ??
(34.9170°N, 135.5016°E)
Time: 23:29:38
(UTC+00:00)

RS-15 - Pass Details

Date: 22 April 2021
Orbit: 1888 x 2157 km, 64.8° (Epoch: 12 May)

Event Time Altitude Azimuth Distance (km) Brightness Sun altitude
Rises 16:06:15 0° 330° (NNW) 5,507 10.8 -39.8°
Reaches altitude 10° 16:10:35 10° 343° (NNW) 4,546 10.4 -39.5°
Maximum altitude 16:20:08 27° 38° (NE) 3,456 9.7 -38.7°
Drops below altitude 10° 16:29:51 10° 91° (E) 4,663 10.2 -37.7°
Sets 16:34:19 0° 103° (ESE) 5,673 10.6 -37.3°
